Find Starlink 36954

NORAD ID: 68057 Int'l Des: 2026-041 Owner: SPXS Country: US Constellation: starlink operational
LEOCIRCULAR

リアルタイム位置

3D地球を読み込み中...

Starlink 36954について

説明を読み込み中...

次回通過

Passes for default location (London). Set your location on the main map for personalized predictions.

高度履歴

Loading altitude history...

軌道要素

1 68057U 26041T 26106.83335647 -.01791612 00000-0 -36990-1 0 9990
2 68057 53.1603 232.8219 0001353 48.4467 57.8224 15.48773558 5891
Epoch: Apr 16, 2026 • Age: 6 hours

現在のステータス

高度 426.6 km
速度 7.66 km/s
衛星直下点 39.56°N, 134.02°E
打ち上げ日 Mar 2, 2026
運用期間 0.1 years
タイプ internet

技術仕様

分類 Payload
質量 575.00 kg
乾燥質量 530.00 kg
総質量 575.00 kg
長さ 0.30 m
直径 4.10 m
スパン 29.00 m
形状 Box + pan
製造者 SPXS
バスタイプ Starlink V2MO
フェーズステータス In Orbit
所有者/国 SPXS/US

Most Searched